Wind_Speed
18 17 16 15 15 14 12 11 11 11 12 13 15 15 15 14 13 13 12 12 11 10 9 9 8 8 8 8 8 8 8 8 7 7 6 6 6 6 6 6 6 6 6 7 8 9 10 9 9 9 9 9 10 10 11 11 10 11 10 11 12 13 14 15 16 16 17 18 19 19 18 18 18 18 17 17 17 19 20 20 20 21 20 19 20
17 16 16 15 15 15 14 14 13 13 13 13 13 14 15 15 15 14 13 13 12 11 10 10 10 9 9 8 8 9 9 9 9 8 8 8 7 6 6 6 6 6 6 7 7 8 9 9 9 9 8 9 9 10 10 11 11 11 11 11 12 13 14 15 15 15 16 18 20 20 20 21 21 21 21 21 20 21 22 23 23 24 23 22 22
16 17 17 17 17 16 15 15 14 14 14 13 13 13 13 14 15 16 15 14 14 13 12 12 11 11 10 10 9 9 10 10 10 9 9 9 9 8 8 7 7 7 7 7 7 8 8 8 8 8 8 8 9 10 10 11 11 11 12 12 12 13 13 14 14 14 14 16 19 20 21 22 23 22 22 22 22 22 23 23 24 25 25 24 24
16 17 17 18 18 17 16 16 15 15 15 14 14 13 12 13 14 15 16 16 16 15 14 14 14 13 12 11 11 10 10 10 11 10 10 10 10 10 10 9 9 8 8 8 8 8 8 8 8 8 8 8 9 9 10 10 10 11 11 12 12 12 13 13 13 13 14 14 16 17 19 21 21 21 21 22 22 23 23 23 24 25 26 26 25
18 17 17 18 18 18 18 18 18 17 16 15 15 14 13 13 13 14 16 17 17 17 16 16 16 16 14 13 13 12 10 11 11 11 11 11 11 11 11 11 11 10 10 10 9 9 9 9 10 10 9 9 9 10 10 10 10 10 10 10 11 11 12 12 12 13 13 13 14 15 16 18 19 19 20 22 22 22 22 23 23 25 26 27 25
18 17 17 18 19 19 19 20 20 20 18 16 16 15 15 14 14 14 14 16 17 17 17 17 17 17 16 15 14 13 12 12 12 12 12 12 12 12 12 12 12 11 11 11 11 11 10 11 11 11 11 10 10 10 10 11 10 10 10 10 10 11 11 12 12 13 13 13 14 15 16 17 18 18 19 21 21 21 21 22 23 24 25 27 26
19 19 19 18 18 18 20 22 22 22 20 17 16 16 16 16 16 16 15 15 16 17 16 16 16 17 17 16 16 15 14 14 14 14 14 14 13 13 13 13 13 12 12 12 12 12 12 12 12 12 12 11 11 11 12 12 11 11 11 11 12 12 11 12 13 13 14 14 14 15 15 17 18 18 18 19 20 20 20 21 21 22 23 25 25
19 19 19 18 17 17 19 22 24 24 21 18 17 18 18 18 18 18 18 16 16 17 17 16 15 15 16 16 17 17 17 16 15 15 15 16 16 15 14 15 14 13 13 12 12 13 13 13 13 13 13 13 13 13 13 13 13 13 13 13 13 13 13 13 14 14 15 15 15 15 16 16 17 17 17 18 19 19 21 22 22 21 22 23 24
18 18 18 17 17 18 19 22 24 24 22 20 20 21 21 20 19 20 21 19 17 17 18 18 18 16 15 16 17 18 19 18 17 17 16 17 17 17 16 16 16 16 15 14 14 14 14 14 14 14 14 14 14 15 15 15 15 14 13 14 14 15 15 15 15 16 16 16 16 16 16 16 15 16 17 18 19 20 21 23 24 23 23 24 23
17 17 17 17 16 18 20 22 24 24 23 23 23 24 23 22 21 21 22 22 20 18 18 19 19 19 17 16 16 18 19 19 18 18 17 17 17 18 18 17 17 17 17 17 17 16 16 16 15 15 15 15 16 17 17 17 16 16 15 16 16 16 16 16 17 17 17 17 16 16 16 15 15 16 17 17 19 21 22 24 25 25 26 25 25
15 14 15 16 17 19 20 22 24 24 25 25 25 25 24 22 22 22 23 23 21 19 18 19 19 19 19 18 16 16 17 18 18 18 18 18 17 18 19 19 18 18 18 19 18 18 18 18 17 17 17 16 16 17 18 18 19 19 18 18 18 18 19 19 19 18 18 18 18 18 19 18 17 18 19 19 21 22 24 26 27 27 27 27 27
16 14 14 16 18 19 20 21 23 25 25 25 27 27 26 25 24 24 24 24 23 22 21 21 20 19 19 19 18 16 14 14 16 17 17 18 18 18 19 20 21 21 20 19 19 19 19 19 19 19 19 18 18 17 18 18 19 20 20 20 21 21 21 21 20 20 20 20 21 21 21 21 20 20 20 21 22 24 26 27 27 28 28 29 29
18 17 16 17 19 20 20 20 21 22 24 24 25 27 26 26 26 26 25 25 26 25 24 24 23 22 21 20 19 18 16 14 14 14 15 16 17 18 18 19 21 22 22 21 20 20 20 20 21 21 20 20 20 20 20 19 19 20 21 21 22 23 23 23 23 22 22 22 22 21 21 21 22 21 20 22 24 25 26 27 27 28 28 28 28
20 19 19 20 20 21 21 20 20 21 22 22 23 25 25 26 28 28 28 28 29 29 27 26 26 25 24 23 21 21 20 18 16 15 14 14 15 16 17 18 19 20 20 21 20 20 21 21 22 22 22 22 22 22 22 22 22 22 22 23 23 23 24 24 25 25 25 24 23 22 20 21 22 21 21 22 25 26 27 27 27 28 28 27 26
19 20 21 22 23 23 23 22 22 21 21 23 24 25 26 27 28 28 29 29 30 30 29 28 28 28 28 27 26 24 23 22 21 19 17 16 16 17 17 18 19 19 19 20 21 21 22 22 23 23 23 23 23 23 24 25 25 24 24 24 24 24 25 25 25 25 26 26 26 24 22 21 22 22 22 23 25 26 27 28 28 27 27 27 25
15 17 19 20 22 23 24 24 24 23 23 24 25 27 28 28 29 29 29 30 29 29 30 30 30 30 30 31 31 28 26 25 25 25 24 22 21 21 20 20 20 21 21 21 22 23 24 24 24 23 23 23 23 24 24 26 27 28 27 26 25 26 25 25 25 26 27 28 28 27 26 25 24 24 24 25 26 26 27 29 28 28 28 27 25
9 11 13 15 17 20 22 23 23 23 24 25 26 27 27 26 28 29 29 28 29 30 31 31 31 31 31 33 33 32 29 27 27 28 29 29 28 26 25 25 24 23 23 23 23 24 25 26 26 25 24 23 23 23 24 26 28 29 30 29 29 28 27 25 26 27 27 28 29 29 28 28 27 27 26 26 26 27 28 30 29 28 29 29 26
7 7 8 9 12 14 17 18 19 20 22 24 26 27 27 25 25 26 26 27 28 29 31 32 32 32 32 32 33 34 33 31 29 29 30 31 31 30 28 27 27 26 25 24 25 25 25 26 27 28 28 26 24 24 24 26 28 29 30 31 32 31 28 27 28 28 28 29 29 29 29 29 29 29 29 28 27 27 29 29 28 29 29 29 27
9 8 8 7 8 9 11 12 13 14 16 20 23 25 26 26 25 25 25 25 26 27 29 30 31 33 34 33 33 34 35 33 32 30 29 29 30 30 29 29 28 28 27 26 26 27 28 27 28 29 30 30 28 27 26 26 28 30 31 32 34 33 30 29 30 30 30 30 30 30 30 30 30 31 30 29 28 29 29 29 29 29 29 28 27
12 11 11 11 10 9 9 9 9 9 10 13 17 19 22 24 26 27 27 26 26 25 26 26 27 29 31 32 32 32 32 32 33 33 32 30 29 29 30 31 32 32 32 31 29 29 30 30 30 30 31 31 31 30 29 29 29 30 31 34 34 33 32 32 33 33 33 33 32 32 32 31 31 31 30 29 29 29 29 29 29 29 29 28 26
16 16 15 15 14 14 13 11 10 9 9 10 12 15 18 21 24 26 27 27 27 27 25 23 23 25 28 30 32 33 32 31 31 32 32 32 30 28 29 30 30 31 33 34 33 31 30 31 31 31 31 31 31 32 32 32 32 31 32 33 33 33 34 35 36 36 36 36 35 34 34 32 31 30 30 29 29 28 28 28 28 27 27 27 26
21 20 20 19 18 18 18 17 15 14 12 11 11 13 15 18 21 24 26 27 28 28 26 24 25 27 29 30 32 33 32 32 31 30 30 31 31 30 29 29 29 29 30 31 32 32 31 31 31 32 32 32 32 32 33 33 34 34 32 30 31 32 34 36 37 37 38 38 38 37 36 34 32 31 30 30 28 28 27 27 26 25 25 25 25
25 25 24 23 22 22 22 21 20 19 17 16 15 14 14 15 17 20 23 26 28 29 28 27 27 30 32 34 35 33 30 30 31 30 29 29 31 32 31 31 31 31 31 30 31 32 31 31 31 31 32 33 33 33 33 33 33 34 32 31 30 31 33 35 37 37 38 38 39 39 37 35 34 32 31 30 29 28 27 25 24 24 24 24 25
29 29 28 26 25 25 25 25 24 23 21 20 19 18 17 16 16 17 19 22 26 29 31 32 31 31 32 34 36 35 31 30 31 31 29 29 29 30 31 31 31 32 33 32 32 33 33 32 31 30 32 33 33 34 33 33 32 33 33 33 33 33 34 35 35 36 37 39 39 39 37 36 34 33 32 31 29 28 25 24 23 23 22 23 24
31 31 30 29 28 28 28 27 27 26 25 23 22 21 21 20 19 18 17 19 22 26 30 33 34 34 34 34 36 36 34 33 32 31 30 30 30 30 30 30 30 31 32 33 33 34 35 34 34 34 34 34 34 34 33 32 32 33 33 33 35 36 36 35 33 33 34 36 38 38 37 36 35 33 32 31 28 25 23 22 22 22 22 23 23
30 30 30 30 30 30 30 30 29 29 28 27 26 24 24 24 23 21 19 19 20 23 26 29 32 34 36 36 36 37 36 35 34 34 33 33 32 32 31 31 30 31 31 31 31 33 35 36 36 37 36 36 35 34 33 32 33 34 34 34 36 37 37 36 34 33 32 33 35 37 37 37 36 34 33 31 28 26 26 25 24 23 23 24 24
28 29 29 29 29 29 30 30 31 31 31 31 29 27 27 27 26 25 24 22 22 22 23 24 27 31 34 36 37 37 37 36 36 36 37 36 35 34 34 33 33 32 31 31 31 32 34 35 37 38 38 37 37 35 34 33 34 34 34 35 36 36 36 36 35 34 33 32 34 35 36 37 37 36 34 32 30 29 30 30 29 28 27 28 29
27 27 28 28 28 28 28 29 30 31 32 32 32 31 30 29 29 29 28 26 25 24 24 23 24 26 29 32 35 37 38 38 37 38 38 38 37 36 36 36 36 35 34 33 33 33 34 35 37 37 38 38 37 35 34 34 34 34 33 34 34 34 35 36 36 36 34 32 33 34 36 37 38 37 36 35 33 33 34 34 34 33 33 33 35
25 26 27 28 28 28 28 28 28 29 30 31 33 34 34 33 32 32 31 30 28 27 27 25 24 25 26 28 31 34 35 36 37 38 39 39 39 39 38 37 38 38 37 37 36 36 36 36 36 37 37 37 36 34 34 33 32 30 31 32 32 32 33 34 35 34 33 32 33 33 34 36 37 38 39 38 37 37 38 38 38 38 37 37 38
24 24 25 26 27 28 28 28 28 28 28 29 31 34 36 37 36 35 34 33 32 31 30 29 28 27 26 26 27 30 32 32 34 36 38 39 41 41 40 39 38 39 40 42 41 38 37 37 37 36 36 35 34 33 32 31 29 28 28 29 29 29 29 31 32 33 33 32 31 31 33 35 37 37 37 38 38 38 38 38 38 40 40 40 40
23 23 24 25 25 26 27 26 26 26 26 27 29 32 35 38 39 38 37 36 35 35 34 33 32 31 29 27 27 28 30 31 32 33 35 37 39 41 41 41 40 40 42 45 45 42 39 37 37 36 36 35 33 32 31 31 29 28 28 27 27 26 26 26 26 28 30 30 30 30 32 35 37 38 37 37 36 35 36 37 38 39 42 44 42
23 23 23 24 25 25 26 25 24 24 25 26 28 30 32 35 38 40 40 40 39 38 38 37 37 36 34 32 30 29 29 30 31 32 33 34 36 39 41 42 42 43 44 46 46 45 42 39 37 35 35 35 33 32 32 31 31 30 30 29 28 28 27 25 23 24 26 28 29 30 32 34 37 39 39 39 38 37 37 38 37 40 44 46 45
22 22 22 23 24 25 26 26 25 24 24 25 27 29 30 32 34 37 40 42 44 43 42 41 40 39 38 37 34 32 31 31 31 32 32 33 35 36 38 40 42 44 45 45 44 44 43 41 38 36 35 35 35 34 34 34 32 32 32 32 32 32 31 30 29 27 26 27 28 29 30 30 32 34 36 37 39 40 40 39 38 40 44 44 44
21 21 21 22 23 25 26 26 26 26 26 26 27 28 29 29 31 33 36 41 44 46 46 45 44 43 42 41 39 37 35 34 34 33 32 33 35 36 36 37 39 41 42 42 42 42 42 42 41 38 37 37 38 38 37 36 35 34 33 33 33 34 34 33 32 28 26 27 28 27 27 28 28 29 31 33 35 37 37 37 36 36 39 42 42
20 20 21 22 23 24 25 26 27 27 28 28 28 28 29 29 30 32 34 37 40 43 46 47 47 47 45 44 43 41 39 38 37 36 35 34 35 35 35 36 37 38 40 41 42 42 42 43 43 42 40 39 39 39 39 38 36 35 34 33 34 36 37 37 35 31 28 28 28 27 28 29 29 29 31 33 34 35 35 37 37 34 36 41 40
21 21 21 22 23 24 25 27 28 29 29 29 29 30 30 31 31 32 34 35 37 40 42 45 47 49 49 47 46 45 43 41 40 39 38 37 36 36 36 36 36 36 37 38 39 40 42 44 44 44 42 41 40 40 40 39 37 36 35 35 35 37 40 40 39 35 32 30 29 28 28 29 29 29 30 32 35 36 36 38 39 36 34 37 37
22 22 22 23 23 25 26 27 29 30 31 31 31 32 32 32 32 33 34 35 37 38 40 41 44 48 50 50 50 49 47 45 43 41 40 39 38 38 38 37 37 37 35 35 36 37 39 41 42 43 43 42 42 41 41 39 38 37 36 36 36 38 40 42 42 39 36 33 31 30 30 30 29 30 30 33 38 41 40 39 39 37 35 35 36
23 23 23 24 24 25 26 27 28 30 30 31 31 32 33 33 34 34 35 36 37 38 40 41 42 44 47 50 51 52 51 49 46 44 42 41 40 40 40 40 40 39 38 37 36 37 37 38 40 41 41 41 42 43 43 41 39 37 36 36 37 39 40 42 42 41 38 35 33 33 34 34 33 32 33 35 40 44 45 43 39 36 35 34 34
25 24 23 23 24 25 26 27 28 29 30 31 32 32 33 34 34 35 35 36 37 38 40 41 43 43 45 47 49 51 52 51 50 48 46 43 42 42 43 43 42 41 40 39 39 39 39 39 39 40 40 40 40 42 43 43 42 40 38 37 37 39 41 43 43 41 39 37 37 37 38 38 36 35 36 38 42 47 49 46 39 34 32 30 29
24 24 23 23 24 25 26 27 28 29 31 31 32 32 33 34 35 36 36 36 37 38 39 41 43 44 44 45 47 49 50 51 51 51 49 47 45 44 45 45 44 43 43 42 42 41 41 40 40 40 40 40 40 40 42 43 44 43 43 41 40 40 41 42 43 42 41 40 40 41 41 40 39 39 38 38 39 43 45 42 38 34 32 29 28
24 23 23 23 25 26 27 28 30 31 32 32 32 33 34 35 36 36 36 36 37 38 39 40 42 43 44 45 46 47 49 50 50 50 50 50 49 47 46 46 46 46 46 45 44 43 43 42 42 41 41 41 41 41 42 43 44 44 45 45 45 44 44 44 44 44 45 45 45 45 45 43 42 42 40 37 36 36 37 39 39 38 37 34 33
25 24 24 24 26 27 29 30 31 31 32 33 34 35 36 37 37 38 37 37 37 38 39 40 40 41 43 44 46 47 47 46 47 48 49 51 51 50 49 48 48 48 48 47 46 45 45 44 43 42 42 42 42 42 43 44 45 45 45 46 47 48 48 47 46 46 48 49 49 49 49 47 45 44 42 41 40 40 40 42 43 41 39 37 36
26 26 25 25 26 28 30 31 32 33 34 34 35 36 37 38 39 40 39 38 37 38 39 40 40 40 41 43 45 45 45 44 45 46 48 50 50 51 51 50 50 50 50 49 48 47 47 46 45 44 43 42 42 43 44 44 45 46 46 46 47 48 49 50 49 48 49 51 52 52 52 50 48 47 46 44 44 43 43 43 42 40 38 38 39
27 27 28 28 28 29 30 32 33 34 35 36 36 37 37 38 39 40 40 39 39 38 39 40 40 40 41 42 43 43 43 43 44 44 45 46 47 49 50 51 52 51 51 50 50 49 48 48 47 46 45 44 43 43 43 44 45 45 46 46 46 47 49 50 50 49 48 49 51 52 52 51 50 49 48 47 46 46 45 43 40 38 38 39 41
27 28 30 30 30 31 31 33 34 35 35 36 37 38 38 38 38 39 39 39 39 39 40 40 39 39 40 41 42 42 42 42 42 43 43 44 44 46 48 50 51 52 52 52 51 51 50 50 49 47 46 45 44 43 43 43 44 45 45 45 46 46 48 49 51 50 50 49 49 49 49 50 50 50 50 49 49 49 49 47 44 41 40 41 42
28 29 30 31 31 31 32 33 34 35 35 36 36 37 38 39 38 38 38 38 39 39 40 39 39 38 39 40 41 42 41 41 41 42 42 42 43 43 44 46 49 51 53 53 53 53 52 51 50 49 47 46 45 44 43 42 42 43 44 44 44 45 46 47 49 50 51 50 50 48 48 49 50 50 51 51 50 50 50 48 45 43 42 42 41
28 29 30 30 31 32 32 33 34 35 36 37 37 37 38 38 38 38 38 38 39 39 40 39 39 38 38 39 40 41 41 40 40 41 41 42 41 41 41 42 45 48 51 52 53 54 54 53 52 50 49 47 46 44 43 42 41 42 43 43 44 44 45 45 47 48 49 50 50 49 48 48 49 49 49 48 47 46 45 43 42 42 43 42 41
28 28 29 30 30 31 32 32 33 35 36 37 38 38 38 38 38 38 38 39 40 40 40 39 39 39 39 38 39 40 41 40 40 40 41 41 41 40 39 39 41 44 47 50 51 53 54 54 53 52 51 49 47 45 43 41 41 41 41 42 43 44 45 46 47 47 48 49 49 48 47 47 47 47 46 45 44 42 42 41 40 41 41 41 41
27 27 28 28 29 30 30 31 32 33 35 35 36 37 38 38 39 38 38 39 40 40 40 40 39 39 39 38 38 39 40 40 40 39 40 41 41 40 39 38 39 40 43 46 49 51 53 54 54 54 53 51 49 47 45 43 41 40 39 39 40 41 42 44 46 47 48 49 50 49 48 47 46 46 45 45 44 43 42 42 42 42 42 43 43
25 26 26 27 28 29 30 31 31 32 33 34 35 36 37 37 38 38 38 38 39 40 40 40 40 40 40 39 38 38 39 39 40 40 39 40 41 41 39 38 38 38 40 42 45 48 50 52 53 54 54 53 52 50 48 46 44 41 39 38 38 37 37 39 41 44 46 47 48 49 48 46 45 44 44 44 44 44 44 44 44 44 44 44 44
25 25 26 28 29 29 30 32 32 33 33 34 35 36 36 36 36 36 37 38 39 40 40 40 40 40 40 40 39 38 39 39 39 39 40 40 41 41 40 39 38 38 39 40 42 45 47 49 50 52 54 54 53 52 50 49 47 44 42 39 37 35 34 35 37 39 40 41 41 42 42 41 41 41 42 42 43 44 44 44 44 43 43 43 43
Wind_Direction
207 212 214 211 207 209 216 224 228 226 223 221 223 227 232 237 240 239 236 237 240 238 237 238 238 235 233 234 236 237 235 232 231 234 234 230 224 219 217 218 224 229 229 227 225 223 226 226 226 229 229 228 231 229 228 233 237 237 233 229 231 237 242 248 255 257 257 259 264 267 269 269 271 274 276 283 287 287 290 295 300 303 306 312 317
207 214 219 223 222 215 212 216 223 230 232 227 223 224 228 233 237 240 239 240 244 243 242 243 243 242 242 243 244 245 246 244 240 240 242 240 238 234 227 225 228 234 235 233 230 226 226 228 229 234 236 235 237 237 235 238 241 241 241 238 235 236 240 245 251 255 255 256 258 261 265 267 270 274 278 281 282 283 288 293 297 301 305 308 311
211 214 216 222 228 227 223 219 218 224 232 234 229 224 226 230 233 237 239 241 245 248 249 250 250 251 252 252 251 247 245 247 245 243 244 244 243 241 238 237 236 239 241 237 232 228 225 223 225 230 234 238 241 244 244 244 245 247 249 249 247 245 246 248 252 255 255 255 256 257 259 263 267 271 275 277 280 283 286 291 296 298 301 304 307
219 219 217 218 222 226 229 229 226 224 226 233 238 234 230 230 232 236 239 240 243 246 248 252 254 255 257 258 259 256 248 245 245 245 247 249 250 248 244 242 241 240 242 241 238 234 227 223 223 225 228 232 239 244 247 248 249 249 250 250 252 253 253 252 253 254 254 254 255 256 257 260 264 268 272 275 278 281 285 289 292 296 298 301 305
222 221 221 219 218 222 225 228 231 229 223 225 234 239 239 240 237 237 241 244 244 244 245 249 253 255 258 260 261 261 255 248 246 246 248 250 253 253 250 246 244 242 241 240 242 240 235 231 229 230 231 232 236 240 242 246 249 252 253 252 252 253 255 257 257 257 258 258 259 260 261 262 264 268 273 275 277 280 285 288 291 295 299 301 305
226 226 226 221 219 221 224 227 232 231 224 219 224 230 235 242 245 242 244 248 250 250 248 247 249 253 256 257 258 259 256 252 251 251 251 252 252 254 255 252 247 245 244 243 244 244 242 241 238 237 238 237 238 237 236 240 245 251 256 257 256 256 256 260 262 262 262 261 261 263 266 268 270 273 276 278 280 284 287 289 291 295 299 302 305
228 232 232 229 226 223 223 227 230 229 225 220 222 227 225 228 239 242 242 245 249 253 254 251 248 249 251 253 254 255 255 253 251 252 254 256 256 256 258 258 255 250 248 246 246 247 247 247 246 246 245 243 242 241 240 241 242 245 250 254 257 260 260 262 264 266 267 267 266 266 267 270 273 276 279 282 285 287 287 287 288 291 294 297 301
231 235 237 236 229 219 218 222 225 226 223 218 222 231 228 221 226 234 237 238 242 248 254 256 253 248 248 250 252 254 254 253 252 251 253 256 259 260 259 261 262 259 256 252 250 249 249 249 250 251 251 251 249 247 246 245 245 245 247 251 254 257 259 261 262 265 266 267 267 267 267 268 272 276 279 282 284 286 287 287 288 290 292 294 297
233 236 238 238 229 220 219 222 224 224 223 219 221 229 231 224 222 230 235 234 234 237 244 253 258 255 249 246 249 252 253 254 254 254 254 255 258 261 260 258 259 260 260 259 256 254 253 252 251 250 251 252 252 251 251 250 249 248 248 251 254 255 256 257 259 262 264 264 264 265 265 266 269 272 275 278 283 286 289 291 292 293 294 294 296
235 236 237 237 234 229 226 225 226 226 225 225 224 227 232 228 223 228 236 237 234 231 231 238 250 258 259 252 247 248 252 254 256 257 258 257 257 259 260 258 255 255 256 256 256 256 255 254 253 251 249 248 247 247 250 252 253 253 252 252 253 254 256 256 257 259 263 265 267 268 268 268 270 274 276 280 285 288 290 291 292 293 295 296 298
233 237 237 236 235 233 230 228 228 227 228 231 231 231 234 234 228 229 235 238 240 237 232 231 236 246 257 261 256 248 248 253 256 258 260 261 260 259 261 261 259 255 252 252 253 254 254 254 253 253 252 250 247 244 244 246 249 252 255 256 256 257 258 258 259 261 264 268 271 273 275 275 278 281 284 286 288 289 289 289 290 293 295 297 299
228 235 239 240 240 238 235 233 231 230 232 235 236 236 236 236 237 236 236 239 242 243 241 239 239 239 243 252 257 256 251 249 253 256 258 262 264 263 262 262 262 260 256 252 251 251 252 253 253 253 252 253 253 251 248 246 246 249 252 256 259 261 263 265 266 268 269 270 271 273 276 279 282 283 285 287 286 286 286 288 290 293 295 297 299
231 235 240 244 246 245 243 242 240 239 240 239 238 238 239 241 242 240 239 241 244 245 244 245 248 247 243 244 250 255 256 251 248 249 251 256 261 263 263 260 260 262 261 258 255 253 252 252 252 252 253 253 254 255 255 253 251 250 250 252 255 259 264 268 271 273 273 273 273 273 277 281 282 282 284 285 283 283 284 287 289 291 293 294 296
237 239 243 245 246 246 246 246 248 248 249 248 244 242 243 246 245 242 240 241 244 246 246 247 248 250 250 251 250 252 254 256 256 253 250 250 254 257 259 258 258 260 262 262 261 259 257 256 254 253 252 253 254 255 257 258 257 255 254 253 254 257 261 265 269 273 276 277 277 276 277 278 280 281 282 281 281 282 284 285 287 288 288 290 293
234 238 242 243 243 245 246 246 247 248 250 253 253 250 248 248 245 240 239 241 243 245 246 247 248 249 252 255 256 255 255 256 259 260 257 255 255 255 254 253 254 256 258 262 265 266 264 262 259 256 254 253 253 254 256 259 260 259 257 255 255 256 258 261 266 270 274 277 280 281 281 281 281 281 281 280 280 282 284 285 285 286 288 290 293
230 234 238 239 241 245 247 246 245 246 249 253 255 254 253 252 248 242 239 241 244 244 244 246 247 249 252 254 254 255 256 256 257 259 261 260 260 259 256 254 254 254 255 259 262 267 269 268 265 261 257 255 254 253 255 258 260 261 260 259 258 257 257 258 261 264 268 273 277 281 284 284 283 283 282 281 282 284 285 284 285 288 290 291 292
234 235 235 238 241 244 247 247 244 244 247 251 254 254 253 252 249 245 243 244 245 245 245 246 249 252 255 256 255 254 253 254 253 254 258 261 261 260 259 259 258 255 254 256 258 261 266 269 271 270 265 260 257 256 255 256 258 261 262 263 262 260 258 258 259 261 263 268 272 276 280 282 283 283 283 282 282 283 282 283 286 288 289 290 292
246 248 243 240 242 245 248 248 245 243 244 248 251 250 248 246 245 245 248 251 250 250 249 249 252 255 256 259 260 256 251 250 250 251 256 260 262 262 262 262 262 260 256 254 255 257 259 263 268 271 271 269 266 262 260 259 259 260 262 264 265 263 262 261 261 262 263 265 267 270 273 276 278 279 280 280 282 281 281 284 287 287 288 291 294
244 253 258 255 252 251 253 254 252 249 247 249 251 250 248 246 245 246 251 254 253 252 252 253 255 257 258 260 261 258 253 251 252 255 258 261 262 264 265 265 265 265 263 259 256 256 257 258 261 264 268 270 270 268 265 263 262 261 262 264 265 267 268 267 266 265 264 263 263 265 266 268 270 273 276 278 279 279 281 284 286 287 290 293 295
247 251 255 259 263 262 260 262 263 260 255 254 256 256 254 251 248 246 248 251 252 251 251 254 257 258 259 259 259 259 258 259 260 260 260 261 262 264 267 266 265 266 268 266 263 261 259 259 259 261 264 269 272 273 273 270 268 266 265 265 267 271 273 272 270 269 268 267 266 265 265 266 268 270 273 274 276 277 279 282 283 285 289 291 293
251 252 253 256 260 261 260 260 261 262 261 259 257 255 253 252 249 246 245 247 250 249 249 255 262 262 261 259 259 260 261 263 263 262 260 260 261 263 265 266 267 268 266 265 264 264 264 264 263 263 264 266 269 271 273 273 273 272 270 270 273 276 276 274 274 273 272 272 272 271 271 272 273 274 275 276 276 276 277 279 281 283 286 288 289
251 251 252 254 256 258 259 258 257 257 257 259 259 256 252 250 248 246 244 244 246 246 246 251 259 262 262 260 259 258 259 260 260 258 257 258 259 260 261 262 266 268 267 265 264 265 267 268 268 267 267 266 266 266 268 270 271 271 272 273 276 278 278 278 277 276 275 276 275 275 276 277 279 280 281 282 283 282 281 281 281 282 282 283 283
252 250 250 250 251 254 258 259 258 256 254 255 259 260 260 257 253 249 247 245 243 242 241 242 248 254 258 260 259 257 257 258 257 256 256 257 257 258 258 260 262 264 266 266 266 267 269 269 269 270 270 271 271 270 270 270 271 271 272 271 272 274 276 277 278 278 278 278 277 277 278 280 281 283 285 288 289 289 287 285 282 280 278 277 278
251 250 250 249 248 249 252 256 258 257 255 254 254 256 259 261 260 257 253 248 245 243 241 240 241 244 250 257 259 258 257 258 259 259 257 257 257 258 259 260 262 264 265 265 265 267 270 269 268 268 270 271 272 273 273 273 274 275 275 273 270 269 270 272 275 278 278 278 279 280 281 283 284 286 288 290 290 289 287 284 281 279 278 277 277
251 251 251 250 247 246 247 250 253 256 255 253 251 252 254 257 259 260 257 252 248 245 245 244 243 243 244 249 254 256 257 259 261 261 259 257 257 258 259 260 262 264 266 265 265 266 267 267 266 267 268 268 269 270 273 275 276 277 277 275 273 272 272 272 273 274 276 277 280 282 283 284 285 286 287 289 289 288 285 282 281 280 279 278 276
252 252 252 250 249 247 246 246 248 251 253 253 252 251 251 253 255 256 256 255 251 249 248 246 246 246 247 247 250 253 255 257 258 259 259 257 257 257 257 257 259 262 266 269 268 267 267 267 268 268 268 267 265 266 269 273 277 278 277 277 276 275 275 274 274 273 274 275 277 279 281 284 285 285 286 286 286 287 286 285 284 282 283 283 280
253 253 253 252 251 250 247 246 246 246 249 252 253 251 250 250 252 253 253 253 253 254 253 249 248 249 249 250 251 252 253 254 255 257 258 257 258 258 257 257 258 260 264 267 269 270 269 269 269 268 268 267 266 266 267 271 276 277 277 278 277 276 274 273 273 274 275 275 275 276 278 281 283 284 285 285 284 285 287 287 285 284 286 287 285
255 255 256 255 254 252 250 248 246 245 246 248 250 251 250 250 250 251 252 251 251 253 254 253 252 252 252 252 253 253 254 254 253 254 256 258 259 259 258 258 259 260 262 263 266 269 270 269 268 268 268 268 267 267 268 271 274 274 274 276 277 275 273 271 272 274 276 277 275 275 276 279 280 282 284 284 284 286 287 287 287 287 287 287 284
258 257 258 257 257 256 254 251 249 247 245 244 246 249 250 250 250 250 251 252 251 251 252 255 256 255 254 255 256 255 255 256 255 255 255 257 259 259 258 258 259 259 262 263 263 265 268 268 268 268 268 266 265 264 266 270 272 273 273 273 274 273 271 270 269 272 275 276 276 276 277 278 279 281 282 282 283 286 287 287 288 288 287 285 282
261 261 260 259 260 259 257 255 254 252 249 245 244 245 247 250 251 250 250 252 253 253 253 254 256 256 255 256 258 258 257 257 257 257 257 257 258 259 258 259 259 259 261 263 264 264 266 267 268 267 266 263 261 261 263 266 270 273 273 273 272 272 271 270 271 273 275 276 276 277 276 275 276 279 282 284 286 288 290 290 289 289 287 285 282
261 261 260 261 262 262 262 260 258 257 255 251 247 244 243 246 248 250 250 250 252 253 254 255 257 258 257 255 256 259 260 260 258 258 259 260 260 259 259 259 259 260 261 263 265 266 267 266 266 266 265 262 259 258 260 263 268 271 271 270 271 270 269 270 271 272 273 272 272 273 273 274 276 279 283 286 289 294 297 295 293 294 291 286 282
262 261 262 263 264 265 267 267 265 263 260 256 253 249 245 244 245 247 249 250 250 251 253 254 257 259 260 258 255 254 258 261 261 260 260 260 260 260 260 259 259 260 263 265 266 267 268 267 264 264 264 261 257 257 259 262 266 267 267 268 270 271 270 268 267 269 271 271 272 273 275 277 280 282 284 286 289 294 298 297 297 303 302 292 282
262 263 264 265 266 268 269 271 271 270 267 263 260 257 254 251 248 246 247 248 249 249 250 251 254 256 259 260 259 255 254 256 259 260 261 261 260 260 260 260 260 261 263 265 267 267 268 267 264 263 262 260 258 258 259 261 264 266 267 269 271 272 272 270 270 273 276 277 277 278 280 282 284 283 283 284 285 285 286 286 291 300 304 295 282
260 262 264 266 268 270 271 273 274 273 272 270 268 265 264 261 256 251 247 246 246 247 248 249 251 253 255 257 259 258 256 255 257 258 259 259 260 261 260 260 261 262 263 265 266 266 265 265 265 264 262 260 259 260 261 262 263 264 265 265 267 270 271 269 269 272 277 279 281 283 284 285 285 282 281 283 285 285 285 289 293 295 295 293 286
260 261 263 265 268 271 273 275 276 275 275 275 273 272 270 267 262 258 254 250 248 246 246 246 248 249 251 253 255 257 257 257 258 259 259 259 259 260 260 260 261 263 264 265 266 266 264 263 264 265 263 261 260 261 264 265 265 263 262 261 262 266 268 267 266 268 272 278 282 284 283 282 283 284 285 288 291 294 298 306 310 303 292 289 286
265 265 265 266 268 270 272 274 275 276 278 278 277 276 274 271 268 265 261 258 254 250 247 246 245 246 248 250 251 253 254 255 256 258 260 260 260 260 261 261 261 262 263 264 264 265 265 264 264 264 263 262 261 262 264 266 265 263 261 258 259 262 265 267 268 267 268 273 279 281 282 282 283 285 289 291 294 298 304 310 313 306 293 285 281
268 269 270 270 271 271 272 273 275 277 278 279 279 280 279 277 274 271 267 264 261 257 253 250 247 245 245 247 248 249 250 250 252 254 257 260 261 262 263 263 263 262 262 262 262 262 263 264 265 265 265 264 263 263 264 266 267 265 261 257 256 259 262 265 268 269 268 270 275 279 282 285 287 287 288 291 292 294 297 301 304 302 296 286 279
269 270 271 273 276 277 278 279 280 281 282 282 282 283 282 282 280 277 273 270 266 262 258 254 251 249 247 246 246 247 248 248 248 249 251 255 258 260 261 262 263 264 264 264 263 261 260 261 263 264 266 266 265 264 264 265 267 267 264 260 258 258 260 263 265 268 269 269 271 275 278 282 288 290 289 288 287 286 288 291 294 296 293 283 273
271 273 275 278 280 282 283 284 283 283 283 283 283 283 284 284 283 281 278 274 271 266 261 257 254 253 251 249 248 248 248 248 247 246 246 249 252 255 257 258 259 261 263 264 264 263 263 262 262 262 264 264 265 265 265 265 265 265 265 263 260 260 262 265 266 267 268 268 269 271 273 276 284 289 289 287 284 281 281 283 286 287 287 279 269
273 276 279 281 282 282 283 283 282 282 281 281 282 283 283 283 282 281 279 277 274 270 265 259 255 253 253 253 252 251 249 248 248 247 246 246 247 250 253 255 256 258 259 261 262 263 263 264 264 264 264 264 264 264 265 265 265 264 263 262 261 261 264 266 266 267 267 265 266 268 269 273 279 283 283 283 283 278 275 275 277 278 281 279 272
277 277 278 278 278 279 280 279 279 280 280 280 281 280 280 280 280 279 278 277 275 272 268 262 257 254 253 254 255 255 253 250 249 249 248 247 246 247 248 250 253 254 255 257 258 260 261 262 263 264 266 266 266 265 265 265 265 264 263 262 262 262 263 264 265 265 265 264 265 266 268 271 275 276 275 275 275 273 271 272 272 272 274 276 275
279 278 277 276 276 277 277 277 277 278 278 278 278 277 277 278 278 278 278 277 276 273 270 266 261 256 254 254 255 256 257 256 254 252 249 247 247 248 248 248 249 251 253 254 255 257 258 260 261 262 263 264 265 265 265 264 264 264 263 262 262 262 262 263 262 261 262 263 264 266 268 270 270 269 268 268 267 265 267 270 270 270 271 272 270
281 281 281 279 277 275 275 275 275 275 275 275 275 275 276 276 277 277 277 277 275 272 270 267 264 259 256 255 256 258 259 259 259 257 253 250 249 250 250 250 249 249 250 252 253 254 256 257 258 259 260 261 262 263 263 264 263 263 263 262 261 261 261 261 260 259 259 260 262 263 264 266 266 265 267 270 268 264 264 266 268 271 274 274 272
281 282 282 281 279 278 277 275 274 273 273 272 272 272 273 273 274 275 275 275 274 271 268 266 264 261 258 256 256 258 260 260 261 261 259 257 254 252 252 252 251 250 250 250 251 252 253 255 257 258 259 259 260 261 262 262 263 262 262 262 261 261 261 261 261 259 258 258 259 260 260 261 262 263 266 269 268 265 263 264 265 267 270 273 274
280 281 281 282 282 281 280 279 277 275 274 273 272 272 271 271 271 272 273 272 271 270 269 267 265 263 260 257 256 257 259 261 262 263 263 263 260 257 254 253 253 253 253 251 251 251 251 253 255 257 258 259 259 260 261 262 262 263 262 262 262 261 261 261 261 261 259 258 258 259 260 259 259 260 263 266 267 266 265 265 265 266 268 271 270
280 281 281 282 282 281 280 279 279 278 277 276 275 274 272 271 270 270 270 270 270 269 269 268 266 264 262 259 257 257 258 260 262 263 264 265 265 263 260 257 255 255 255 254 253 251 251 251 253 255 257 258 259 259 261 262 262 263 263 262 262 262 262 261 261 261 260 260 259 260 261 261 260 260 262 264 265 266 266 266 266 268 269 270 268
282 283 283 282 281 280 279 279 279 279 279 279 278 277 275 274 272 270 269 269 269 268 268 268 268 266 264 261 259 258 258 259 261 262 264 265 267 267 265 262 259 256 256 256 256 254 253 252 252 253 255 257 258 259 260 262 263 263 263 263 263 263 263 263 263 262 261 261 261 261 261 262 262 263 263 263 263 263 264 265 266 267 268 268 267
285 285 285 283 281 280 280 280 280 280 280 279 279 279 278 276 275 272 270 268 267 267 268 268 268 267 266 264 262 260 258 259 259 261 263 265 267 268 267 265 262 259 257 256 256 256 255 254 253 253 254 256 257 258 259 260 262 263 263 263 264 264 265 265 265 264 263 262 262 263 263 263 263 263 263 262 262 263 264 265 268 270 271 271 271
287 288 287 285 283 280 280 280 281 281 282 281 280 278 277 276 275 274 273 271 269 267 267 266 266 267 267 266 264 261 259 258 259 259 261 264 266 268 268 267 264 262 259 257 257 256 256 256 255 255 255 255 257 258 258 258 260 261 262 263 264 265 266 267 267 266 265 263 263 264 265 264 264 263 263 263 264 265 267 269 271 273 274 276 277
291 292 291 289 285 282 280 280 281 282 283 283 281 279 278 277 276 276 274 272 270 268 266 265 264 265 266 266 265 263 261 259 259 259 260 262 264 267 268 267 264 262 260 258 257 256 256 256 257 256 255 255 256 258 258 259 259 260 261 262 263 264 266 267 267 266 265 264 264 264 265 266 265 264 265 265 265 267 269 271 273 273 274 275 277
299 299 297 295 291 288 284 283 283 283 283 282 281 280 279 279 278 277 276 273 272 270 268 266 265 264 265 265 265 264 262 261 260 259 260 261 263 266 268 268 266 263 260 258 256 255 255 256 257 257 257 257 257 258 259 260 260 260 260 261 263 264 266 267 266 265 264 265 265 265 266 268 268 268 268 268 268 269 271 272 273 274 274 275 276
Height
3218 3220 3222 3224 3225 3227 3230 3232 3234 3236 3238 3240 3242 3244 3246 3248 3249 3250 3251 3252 3253 3254 3255 3256 3256 3257 3258 3258 3259 3260 3261 3261 3262 3262 3263 3263 3263 3264 3264 3264 3264 3265 3265 3265 3265 3265 3265 3266 3266 3266 3267 3267 3268 3268 3268 3269 3269 3269 3269 3270 3270 3270 3270 3271 3271 3271 3272 3272 3272 3272 3272 3272 3272 3271 3271 3271 3271 3270 3269 3269 3268 3268 3267 3266 3266
3217 3219 3221 3223 3225 3226 3227 3230 3232 3234 3236 3238 3240 3242 3244 3246 3248 3249 3251 3252 3253 3254 3255 3255 3256 3257 3257 3258 3259 3260 3260 3261 3261 3262 3262 3263 3263 3263 3264 3264 3264 3264 3264 3264 3264 3264 3264 3265 3265 3265 3266 3266 3266 3267 3267 3267 3268 3268 3268 3268 3268 3269 3269 3269 3269 3270 3270 3270 3270 3270 3271 3270 3270 3270 3269 3269 3269 3269 3268 3267 3266 3266 3265 3265 3264
3217 3218 3219 3221 3223 3225 3227 3228 3230 3232 3234 3236 3238 3241 3243 3245 3246 3248 3250 3251 3252 3253 3254 3254 3255 3256 3257 3257 3258 3259 3260 3260 3261 3261 3262 3262 3263 3263 3263 3263 3263 3263 3263 3263 3263 3263 3264 3264 3264 3264 3264 3265 3265 3265 3266 3266 3266 3266 3267 3267 3267 3267 3267 3267 3268 3268 3268 3268 3268 3269 3269 3268 3268 3268 3268 3267 3267 3267 3266 3265 3264 3264 3263 3263 3262
3216 3216 3218 3219 3221 3223 3226 3228 3229 3230 3232 3235 3237 3239 3241 3243 3245 3246 3248 3249 3251 3252 3252 3253 3254 3254 3255 3256 3257 3258 3259 3259 3260 3261 3261 3261 3262 3262 3262 3262 3263 3263 3262 3262 3262 3262 3262 3263 3263 3263 3263 3263 3264 3264 3264 3264 3264 3265 3265 3265 3265 3265 3265 3265 3266 3266 3266 3266 3266 3266 3266 3266 3266 3266 3266 3265 3265 3265 3264 3264 3263 3262 3261 3260 3260
3213 3214 3216 3217 3219 3221 3223 3225 3228 3229 3230 3232 3235 3237 3239 3241 3243 3245 3246 3247 3248 3250 3251 3251 3252 3252 3253 3254 3255 3256 3257 3258 3258 3259 3260 3260 3260 3261 3261 3261 3261 3261 3261 3261 3261 3261 3261 3261 3262 3262 3262 3262 3262 3262 3262 3262 3263 3263 3263 3263 3263 3263 3263 3263 3263 3263 3263 3264 3264 3264 3264 3264 3264 3264 3263 3263 3263 3263 3262 3262 3261 3260 3258 3257 3258
3211 3213 3214 3215 3218 3219 3221 3223 3226 3228 3229 3230 3232 3234 3236 3239 3240 3242 3244 3245 3246 3247 3248 3250 3250 3251 3252 3252 3253 3254 3255 3256 3257 3257 3258 3258 3259 3259 3259 3260 3260 3260 3260 3260 3260 3260 3260 3260 3260 3260 3260 3260 3260 3260 3261 3261 3261 3261 3261 3261 3261 3261 3261 3261 3261 3261 3261 3261 3261 3261 3261 3261 3261 3262 3261 3260 3260 3260 3260 3259 3259 3258 3256 3255 3254
3209 3211 3213 3215 3216 3218 3219 3221 3224 3227 3228 3228 3230 3232 3233 3235 3237 3239 3241 3242 3243 3244 3245 3247 3248 3249 3250 3250 3251 3252 3253 3253 3254 3255 3256 3256 3257 3257 3258 3258 3258 3259 3259 3259 3259 3259 3259 3259 3258 3258 3258 3259 3259 3259 3259 3259 3259 3259 3259 3259 3259 3259 3259 3259 3259 3258 3258 3259 3259 3259 3259 3259 3259 3259 3259 3258 3258 3258 3257 3257 3256 3256 3255 3254 3252
3207 3209 3211 3213 3215 3216 3217 3219 3222 3224 3226 3227 3228 3230 3231 3231 3232 3234 3237 3238 3240 3241 3242 3243 3244 3246 3247 3248 3249 3249 3250 3251 3252 3253 3254 3254 3255 3255 3256 3256 3257 3257 3257 3257 3257 3257 3257 3257 3257 3257 3257 3257 3257 3257 3257 3257 3257 3257 3257 3257 3257 3257 3257 3256 3256 3256 3256 3256 3256 3256 3257 3257 3257 3257 3256 3256 3256 3255 3255 3254 3253 3254 3253 3252 3251
3205 3206 3208 3210 3212 3214 3216 3218 3220 3222 3224 3224 3226 3227 3229 3229 3230 3231 3232 3234 3236 3238 3239 3240 3241 3242 3244 3245 3246 3247 3248 3248 3249 3250 3252 3252 3253 3253 3254 3254 3255 3255 3255 3255 3255 3255 3255 3255 3255 3255 3255 3255 3255 3255 3254 3254 3254 3255 3255 3255 3255 3254 3254 3254 3254 3254 3254 3254 3254 3254 3254 3254 3254 3254 3254 3254 3253 3253 3252 3251 3250 3250 3250 3250 3249
3202 3204 3206 3208 3210 3213 3215 3217 3218 3220 3221 3222 3223 3224 3226 3228 3229 3230 3231 3231 3233 3235 3236 3237 3238 3239 3241 3242 3244 3245 3245 3246 3247 3248 3249 3250 3251 3251 3251 3252 3252 3253 3253 3253 3253 3253 3253 3253 3253 3253 3253 3253 3253 3253 3252 3252 3252 3252 3252 3252 3252 3252 3252 3252 3252 3252 3252 3251 3251 3252 3251 3252 3252 3252 3252 3251 3251 3250 3249 3248 3247 3247 3247 3246 3246
3201 3202 3204 3207 3209 3211 3212 3214 3216 3217 3217 3219 3221 3223 3224 3226 3228 3229 3230 3231 3231 3232 3233 3234 3235 3236 3238 3239 3241 3242 3243 3244 3245 3246 3247 3248 3249 3249 3249 3249 3249 3250 3250 3250 3250 3251 3251 3251 3251 3251 3250 3250 3250 3250 3250 3250 3250 3250 3250 3250 3250 3250 3249 3249 3249 3249 3249 3249 3249 3249 3249 3249 3250 3250 3249 3249 3248 3247 3247 3246 3245 3244 3244 3243 3243
3200 3201 3203 3205 3206 3208 3210 3212 3214 3215 3216 3218 3219 3221 3222 3223 3226 3228 3229 3230 3230 3230 3231 3232 3233 3234 3235 3236 3237 3239 3241 3242 3243 3244 3245 3246 3247 3247 3247 3247 3247 3247 3247 3247 3248 3248 3248 3248 3248 3248 3248 3248 3248 3248 3248 3248 3248 3248 3247 3247 3247 3247 3247 3247 3247 3247 3247 3247 3246 3246 3246 3246 3247 3247 3247 3246 3246 3245 3244 3243 3242 3241 3241 3240 3239
3198 3200 3202 3204 3205 3206 3207 3210 3212 3214 3215 3217 3218 3219 3220 3222 3224 3226 3227 3228 3228 3229 3230 3230 3231 3232 3233 3233 3233 3235 3237 3239 3240 3241 3242 3243 3244 3244 3245 3245 3245 3244 3244 3245 3245 3245 3245 3245 3245 3245 3245 3245 3245 3245 3245 3245 3245 3245 3245 3245 3245 3244 3244 3244 3244 3244 3244 3244 3243 3244 3244 3244 3244 3244 3245 3244 3243 3242 3241 3241 3240 3239 3238 3238 3237
3197 3199 3200 3202 3203 3204 3206 3207 3209 3211 3213 3214 3215 3216 3218 3219 3221 3222 3224 3224 3225 3226 3228 3229 3229 3230 3231 3231 3231 3231 3233 3235 3237 3238 3239 3240 3241 3241 3242 3242 3242 3242 3242 3242 3242 3243 3243 3243 3243 3243 3243 3243 3243 3243 3242 3242 3242 3242 3242 3242 3242 3242 3242 3242 3242 3241 3241 3241 3241 3241 3242 3242 3241 3242 3242 3241 3240 3239 3239 3238 3238 3237 3236 3236 3236
3195 3197 3198 3200 3201 3202 3204 3205 3207 3208 3209 3210 3211 3213 3215 3217 3218 3219 3220 3221 3222 3223 3225 3226 3226 3227 3227 3228 3229 3230 3231 3233 3234 3235 3236 3237 3238 3238 3239 3239 3239 3240 3240 3240 3240 3240 3240 3240 3240 3240 3240 3240 3241 3241 3240 3240 3239 3239 3239 3239 3240 3240 3240 3240 3240 3239 3239 3238 3238 3238 3239 3239 3239 3239 3239 3238 3237 3237 3236 3235 3235 3234 3233 3233 3233
3194 3195 3196 3197 3198 3199 3200 3203 3205 3205 3206 3207 3209 3210 3212 3214 3216 3216 3217 3218 3219 3220 3221 3222 3223 3223 3224 3225 3226 3228 3231 3232 3232 3232 3232 3233 3234 3234 3234 3235 3235 3236 3236 3237 3237 3237 3237 3237 3237 3237 3238 3238 3239 3239 3238 3238 3237 3236 3236 3236 3237 3237 3237 3238 3238 3237 3237 3236 3236 3236 3236 3236 3236 3236 3236 3235 3235 3234 3233 3232 3232 3232 3231 3230 3230
3192 3193 3194 3195 3195 3196 3197 3199 3202 3203 3203 3205 3207 3207 3209 3210 3212 3212 3213 3215 3216 3217 3218 3218 3219 3220 3221 3222 3223 3225 3227 3229 3229 3229 3229 3229 3229 3229 3230 3230 3231 3231 3232 3233 3233 3233 3233 3233 3233 3233 3234 3234 3235 3236 3236 3235 3234 3233 3233 3233 3233 3233 3234 3235 3235 3235 3234 3234 3234 3233 3233 3233 3233 3232 3233 3232 3232 3232 3230 3229 3229 3229 3228 3227 3227
3189 3191 3192 3193 3194 3194 3195 3196 3198 3200 3200 3201 3203 3205 3206 3207 3208 3208 3209 3210 3212 3213 3214 3214 3215 3216 3217 3218 3220 3221 3222 3223 3224 3225 3225 3225 3225 3226 3226 3226 3227 3227 3227 3228 3228 3229 3229 3230 3230 3229 3229 3230 3231 3231 3232 3231 3231 3230 3230 3230 3229 3229 3231 3232 3232 3231 3231 3231 3231 3230 3230 3230 3230 3229 3229 3229 3229 3229 3227 3227 3227 3227 3225 3225 3225
3188 3189 3190 3191 3191 3192 3193 3194 3195 3197 3197 3197 3198 3200 3202 3203 3203 3204 3204 3206 3207 3208 3209 3210 3211 3212 3213 3215 3216 3216 3217 3219 3221 3221 3222 3222 3223 3223 3223 3223 3223 3224 3224 3224 3224 3224 3224 3225 3226 3225 3225 3226 3226 3227 3228 3227 3227 3227 3227 3226 3226 3226 3228 3229 3228 3227 3227 3227 3227 3227 3227 3227 3227 3226 3226 3227 3226 3226 3225 3224 3225 3224 3223 3223 3223
3187 3188 3189 3189 3190 3190 3191 3192 3193 3194 3195 3195 3195 3196 3196 3197 3198 3199 3200 3201 3203 3204 3204 3205 3206 3207 3208 3210 3211 3211 3213 3216 3217 3219 3220 3220 3220 3220 3220 3220 3220 3221 3222 3221 3221 3221 3221 3221 3222 3222 3222 3222 3222 3223 3224 3224 3223 3224 3224 3223 3223 3224 3225 3225 3224 3223 3223 3223 3223 3223 3223 3223 3224 3224 3224 3224 3224 3223 3223 3222 3222 3221 3220 3220 3220
3185 3186 3187 3188 3188 3189 3190 3191 3191 3192 3193 3193 3193 3193 3193 3194 3194 3194 3195 3196 3198 3199 3200 3201 3202 3203 3204 3205 3206 3207 3209 3211 3213 3215 3216 3216 3216 3216 3216 3216 3217 3217 3217 3217 3217 3217 3218 3218 3218 3219 3219 3219 3219 3219 3219 3219 3219 3219 3219 3219 3220 3221 3222 3221 3220 3220 3219 3219 3219 3219 3219 3219 3220 3220 3220 3221 3221 3221 3220 3220 3220 3219 3218 3217 3217
3182 3183 3184 3185 3186 3186 3187 3188 3189 3190 3191 3191 3191 3191 3191 3191 3191 3190 3191 3192 3193 3195 3196 3197 3198 3199 3200 3201 3201 3202 3205 3206 3207 3209 3211 3211 3212 3212 3212 3212 3213 3212 3213 3213 3214 3214 3214 3214 3214 3215 3215 3215 3215 3215 3215 3215 3214 3214 3214 3215 3216 3217 3217 3216 3217 3217 3216 3215 3215 3215 3215 3215 3216 3216 3217 3217 3218 3218 3218 3218 3217 3216 3215 3214 3214
3179 3179 3180 3182 3183 3183 3183 3184 3186 3187 3188 3188 3188 3188 3188 3188 3188 3187 3187 3188 3189 3190 3191 3193 3194 3195 3196 3196 3196 3197 3200 3201 3202 3203 3205 3206 3207 3207 3207 3208 3208 3208 3208 3209 3210 3210 3211 3210 3210 3210 3210 3210 3211 3211 3211 3211 3211 3210 3211 3211 3211 3212 3211 3211 3211 3212 3212 3212 3212 3211 3212 3213 3213 3213 3213 3214 3214 3215 3215 3215 3214 3213 3213 3212 3211
3174 3174 3176 3178 3179 3180 3180 3181 3181 3183 3184 3185 3185 3185 3185 3185 3184 3184 3185 3185 3185 3186 3187 3189 3190 3191 3192 3192 3192 3193 3196 3197 3197 3198 3200 3201 3202 3202 3202 3203 3204 3204 3204 3205 3206 3207 3207 3206 3206 3206 3206 3206 3206 3206 3206 3207 3207 3207 3207 3207 3207 3206 3205 3205 3206 3207 3207 3208 3208 3208 3209 3210 3210 3210 3210 3210 3210 3211 3211 3211 3211 3210 3210 3210 3209
3169 3170 3172 3174 3175 3176 3177 3177 3177 3178 3179 3180 3181 3182 3182 3181 3181 3181 3182 3182 3183 3183 3184 3185 3185 3186 3187 3188 3188 3189 3191 3192 3193 3193 3195 3196 3197 3197 3198 3198 3199 3199 3199 3200 3201 3202 3202 3202 3201 3201 3201 3201 3201 3201 3201 3202 3202 3202 3202 3203 3203 3202 3202 3201 3202 3202 3202 3203 3204 3204 3205 3206 3207 3207 3207 3206 3206 3207 3207 3207 3207 3207 3207 3207 3207
3165 3166 3167 3168 3169 3171 3172 3173 3174 3175 3175 3175 3177 3178 3178 3178 3178 3178 3179 3179 3179 3179 3180 3180 3181 3181 3182 3183 3183 3184 3186 3188 3188 3189 3190 3191 3192 3193 3193 3193 3193 3194 3194 3195 3196 3196 3196 3196 3196 3196 3196 3196 3196 3196 3197 3197 3197 3197 3197 3197 3197 3197 3198 3198 3198 3197 3197 3198 3199 3200 3201 3202 3202 3203 3203 3204 3204 3205 3205 3205 3204 3204 3204 3203 3203
3161 3161 3162 3163 3164 3166 3167 3168 3170 3170 3171 3172 3173 3174 3174 3174 3174 3175 3175 3175 3175 3176 3176 3176 3177 3177 3177 3178 3179 3179 3180 3182 3183 3184 3184 3185 3186 3187 3187 3188 3188 3188 3188 3189 3190 3190 3190 3190 3190 3191 3191 3191 3191 3191 3192 3192 3192 3192 3192 3192 3191 3192 3193 3193 3193 3193 3193 3194 3195 3196 3196 3197 3198 3198 3199 3200 3200 3202 3202 3202 3201 3201 3201 3200 3198
3157 3157 3158 3158 3159 3161 3162 3163 3164 3165 3167 3168 3168 3169 3169 3170 3170 3170 3171 3171 3171 3171 3172 3172 3173 3173 3173 3174 3174 3174 3175 3177 3178 3179 3179 3179 3181 3182 3182 3183 3183 3183 3183 3183 3183 3184 3184 3184 3184 3185 3185 3186 3186 3187 3187 3187 3187 3187 3186 3186 3186 3187 3187 3188 3188 3188 3189 3190 3191 3191 3192 3193 3193 3194 3195 3195 3196 3197 3198 3198 3198 3198 3199 3198 3195
3152 3153 3153 3154 3154 3155 3157 3158 3159 3160 3162 3163 3164 3164 3165 3165 3166 3166 3167 3167 3167 3167 3168 3168 3168 3168 3169 3169 3169 3169 3170 3171 3172 3173 3174 3174 3175 3176 3177 3178 3178 3178 3178 3178 3177 3178 3178 3179 3179 3179 3180 3180 3181 3181 3182 3182 3182 3181 3181 3180 3181 3182 3182 3182 3183 3184 3185 3185 3185 3187 3188 3188 3189 3189 3189 3190 3191 3191 3191 3192 3192 3192 3193 3193 3192
3149 3149 3149 3149 3150 3150 3152 3153 3154 3155 3157 3158 3159 3160 3160 3160 3161 3162 3163 3163 3163 3163 3163 3164 3163 3163 3164 3165 3164 3164 3165 3166 3167 3167 3168 3168 3169 3170 3171 3172 3173 3173 3173 3172 3172 3172 3173 3174 3174 3175 3175 3175 3176 3177 3177 3177 3177 3177 3176 3176 3176 3176 3177 3178 3178 3179 3179 3179 3179 3180 3181 3182 3183 3184 3184 3185 3185 3185 3185 3185 3185 3185 3186 3186 3186
3144 3145 3145 3145 3145 3146 3147 3148 3149 3151 3152 3153 3154 3155 3155 3155 3156 3157 3158 3158 3159 3159 3159 3159 3159 3159 3159 3160 3160 3160 3160 3161 3161 3162 3163 3163 3163 3164 3165 3166 3167 3168 3168 3167 3167 3168 3169 3169 3169 3170 3171 3171 3171 3172 3172 3172 3172 3172 3172 3172 3172 3172 3173 3173 3174 3173 3173 3173 3174 3175 3175 3177 3178 3179 3180 3181 3181 3181 3181 3180 3180 3180 3180 3180 3180
3140 3141 3141 3141 3141 3141 3142 3143 3144 3146 3147 3148 3148 3149 3150 3150 3151 3152 3153 3153 3154 3154 3154 3154 3154 3154 3155 3155 3156 3156 3156 3156 3155 3156 3157 3158 3158 3158 3159 3160 3161 3162 3161 3161 3161 3163 3164 3164 3164 3165 3166 3166 3167 3167 3167 3167 3168 3168 3168 3167 3167 3168 3168 3168 3168 3168 3168 3169 3170 3171 3172 3173 3175 3176 3177 3177 3177 3178 3178 3178 3178 3177 3176 3175 3175
3136 3136 3136 3137 3137 3137 3137 3138 3139 3140 3141 3142 3143 3143 3144 3145 3146 3147 3148 3148 3148 3148 3149 3149 3149 3149 3150 3150 3150 3151 3151 3151 3151 3151 3151 3152 3152 3153 3153 3154 3155 3155 3155 3155 3156 3157 3158 3158 3159 3160 3161 3161 3161 3161 3161 3162 3162 3163 3163 3163 3163 3163 3162 3162 3162 3163 3163 3164 3165 3166 3166 3167 3168 3169 3170 3170 3171 3172 3173 3174 3174 3173 3170 3169 3168
3132 3132 3132 3132 3132 3132 3133 3133 3134 3135 3135 3136 3137 3138 3139 3140 3141 3142 3142 3142 3142 3143 3144 3144 3144 3144 3145 3145 3145 3145 3146 3146 3146 3146 3146 3146 3146 3147 3148 3149 3149 3149 3149 3150 3150 3151 3151 3152 3153 3154 3155 3155 3155 3155 3156 3156 3157 3157 3157 3158 3158 3157 3157 3157 3157 3157 3157 3158 3159 3160 3161 3161 3161 3161 3161 3162 3164 3165 3165 3166 3166 3164 3163 3162 3161
3127 3127 3128 3128 3128 3128 3128 3128 3128 3129 3129 3130 3131 3132 3132 3133 3134 3135 3135 3136 3136 3137 3138 3138 3139 3139 3139 3140 3140 3140 3140 3141 3141 3141 3141 3141 3141 3141 3141 3142 3143 3143 3144 3144 3144 3145 3145 3145 3146 3148 3149 3149 3149 3150 3150 3151 3151 3151 3151 3152 3152 3152 3151 3151 3152 3152 3152 3153 3153 3155 3155 3155 3155 3156 3156 3157 3158 3158 3158 3158 3158 3157 3157 3157 3155
3122 3122 3123 3123 3123 3123 3123 3123 3123 3123 3124 3124 3125 3125 3126 3127 3127 3128 3129 3129 3130 3130 3131 3132 3133 3133 3134 3134 3134 3134 3134 3135 3135 3135 3135 3135 3135 3135 3136 3136 3137 3137 3138 3138 3138 3139 3139 3139 3140 3141 3142 3143 3143 3144 3145 3145 3146 3146 3146 3146 3146 3146 3146 3146 3146 3147 3148 3148 3148 3149 3149 3150 3150 3151 3152 3152 3152 3152 3151 3151 3152 3152 3152 3151 3150
3117 3117 3117 3117 3117 3118 3118 3118 3118 3118 3118 3118 3119 3119 3120 3120 3121 3122 3122 3123 3123 3124 3124 3125 3126 3126 3127 3127 3127 3127 3128 3129 3129 3130 3130 3130 3130 3130 3130 3130 3130 3131 3132 3133 3133 3132 3133 3133 3134 3134 3135 3137 3137 3138 3138 3139 3140 3140 3141 3141 3141 3141 3140 3140 3141 3141 3142 3142 3142 3142 3142 3143 3145 3146 3147 3147 3148 3147 3146 3145 3146 3147 3148 3147 3146
3112 3112 3112 3112 3112 3112 3112 3112 3112 3113 3113 3113 3113 3113 3113 3114 3114 3115 3115 3116 3116 3117 3117 3118 3118 3119 3119 3120 3120 3121 3121 3122 3123 3124 3125 3125 3125 3125 3125 3124 3125 3125 3126 3126 3127 3127 3127 3127 3128 3128 3129 3130 3131 3131 3132 3133 3134 3135 3135 3136 3136 3135 3135 3135 3135 3135 3136 3136 3136 3136 3135 3136 3139 3140 3141 3142 3143 3142 3141 3141 3143 3145 3145 3143 3142
3108 3108 3107 3107 3107 3107 3107 3107 3107 3107 3107 3107 3107 3107 3108 3108 3108 3108 3109 3109 3109 3110 3110 3111 3111 3112 3112 3113 3113 3114 3114 3116 3117 3118 3119 3119 3119 3119 3118 3118 3119 3119 3119 3120 3120 3120 3121 3121 3121 3121 3122 3123 3124 3124 3125 3125 3127 3128 3129 3130 3130 3130 3130 3129 3129 3130 3130 3130 3129 3129 3130 3131 3133 3134 3135 3137 3138 3137 3136 3139 3141 3142 3140 3139 3138
3104 3104 3103 3103 3102 3102 3102 3102 3101 3101 3101 3101 3102 3102 3102 3102 3102 3102 3102 3102 3102 3103 3103 3104 3104 3105 3105 3106 3106 3106 3107 3108 3110 3111 3112 3113 3113 3113 3112 3112 3113 3113 3113 3114 3114 3114 3114 3115 3115 3115 3115 3116 3117 3118 3118 3118 3120 3121 3122 3124 3124 3125 3124 3124 3124 3124 3124 3124 3123 3124 3124 3126 3128 3128 3129 3132 3133 3132 3132 3135 3137 3137 3135 3134 3134
3099 3099 3099 3098 3097 3097 3097 3096 3096 3096 3096 3096 3096 3096 3096 3095 3095 3095 3095 3095 3095 3096 3096 3096 3097 3098 3098 3098 3098 3098 3099 3101 3102 3104 3105 3106 3106 3106 3106 3106 3106 3106 3106 3107 3107 3108 3108 3108 3109 3109 3109 3110 3110 3111 3111 3112 3113 3114 3115 3116 3118 3118 3118 3118 3119 3118 3118 3118 3118 3118 3119 3121 3123 3123 3125 3127 3128 3127 3128 3129 3130 3130 3129 3128 3128
3094 3093 3093 3093 3092 3092 3091 3091 3090 3090 3090 3090 3090 3090 3090 3089 3089 3089 3089 3089 3089 3089 3089 3090 3091 3092 3092 3091 3091 3091 3092 3094 3095 3095 3097 3098 3099 3099 3099 3099 3099 3099 3099 3100 3101 3101 3101 3102 3102 3103 3103 3103 3104 3104 3105 3105 3106 3107 3108 3109 3110 3111 3111 3112 3113 3113 3112 3112 3113 3113 3114 3115 3117 3118 3119 3120 3121 3121 3121 3122 3122 3122 3121 3121 3121
3088 3088 3087 3087 3087 3086 3086 3085 3085 3085 3084 3084 3084 3084 3084 3084 3083 3083 3083 3083 3083 3083 3083 3083 3083 3085 3085 3085 3085 3084 3085 3086 3087 3087 3088 3090 3091 3092 3092 3092 3093 3093 3093 3093 3094 3094 3094 3095 3095 3096 3097 3097 3098 3098 3098 3099 3099 3100 3101 3102 3103 3104 3104 3105 3106 3107 3107 3107 3107 3108 3108 3109 3110 3111 3112 3113 3114 3114 3114 3114 3114 3114 3114 3114 3114
3083 3082 3081 3081 3081 3080 3080 3080 3079 3079 3079 3078 3078 3078 3078 3078 3077 3077 3077 3077 3076 3076 3076 3076 3077 3078 3078 3079 3078 3078 3078 3079 3079 3080 3080 3082 3083 3084 3084 3085 3086 3086 3086 3087 3087 3087 3087 3088 3088 3089 3090 3091 3091 3092 3092 3093 3093 3094 3094 3095 3096 3097 3098 3098 3098 3099 3100 3100 3100 3101 3102 3103 3104 3104 3105 3106 3106 3105 3106 3107 3107 3108 3107 3107 3107
3078 3077 3076 3075 3075 3074 3074 3074 3073 3073 3073 3072 3072 3072 3072 3071 3071 3071 3071 3070 3070 3070 3069 3070 3070 3071 3071 3071 3072 3072 3072 3072 3073 3073 3073 3074 3074 3075 3076 3077 3078 3079 3079 3080 3080 3080 3080 3081 3081 3082 3083 3084 3085 3085 3086 3086 3087 3087 3088 3088 3089 3090 3091 3091 3091 3092 3092 3092 3093 3093 3094 3096 3097 3098 3098 3098 3098 3098 3098 3099 3099 3100 3099 3099 3099
3073 3072 3071 3070 3070 3069 3068 3068 3067 3066 3066 3066 3065 3065 3065 3065 3065 3065 3064 3064 3064 3064 3063 3063 3064 3064 3064 3064 3064 3064 3065 3066 3066 3066 3066 3066 3067 3067 3069 3070 3070 3071 3071 3072 3073 3073 3074 3074 3074 3075 3076 3077 3078 3079 3079 3080 3081 3081 3081 3082 3082 3083 3084 3084 3084 3085 3085 3085 3085 3086 3087 3088 3089 3091 3091 3091 3091 3091 3091 3092 3092 3091 3091 3092 3092
3068 3067 3066 3066 3065 3064 3063 3062 3061 3060 3060 3059 3059 3058 3058 3058 3058 3058 3058 3058 3057 3057 3057 3057 3057 3057 3057 3057 3057 3057 3058 3059 3059 3059 3059 3059 3059 3060 3061 3062 3062 3063 3064 3064 3065 3066 3066 3067 3068 3068 3069 3070 3071 3072 3073 3074 3074 3075 3075 3075 3075 3075 3076 3077 3077 3078 3078 3078 3078 3079 3079 3080 3081 3082 3083 3084 3084 3084 3085 3085 3085 3085 3085 3085 3085
3063 3062 3061 3060 3059 3058 3058 3057 3056 3055 3054 3053 3053 3052 3052 3051 3051 3051 3051 3051 3050 3050 3050 3051 3051 3050 3050 3051 3051 3050 3051 3052 3052 3053 3052 3052 3052 3053 3053 3054 3054 3055 3056 3057 3057 3058 3059 3060 3061 3061 3062 3063 3064 3065 3067 3067 3067 3068 3068 3068 3068 3068 3069 3069 3070 3071 3071 3071 3071 3072 3072 3073 3073 3074 3075 3075 3076 3076 3077 3077 3078 3078 3078 3077 3077
3058 3057 3056 3055 3054 3053 3052 3052 3051 3049 3049 3048 3047 3047 3046 3045 3044 3044 3044 3044 3044 3044 3044 3044 3044 3044 3043 3044 3044 3044 3044 3044 3045 3046 3046 3045 3045 3046 3046 3046 3047 3047 3048 3048 3049 3050 3051 3053 3054 3054 3055 3056 3057 3058 3059 3060 3060 3061 3062 3062 3062 3062 3062 3062 3063 3063 3064 3064 3065 3065 3065 3065 3066 3066 3067 3067 3068 3068 3069 3069 3069 3069 3069 3069 3069
3053 3052 3051 3050 3049 3048 3047 3046 3045 3045 3044 3043 3042 3041 3040 3039 3038 3038 3038 3037 3037 3036 3037 3037 3037 3037 3037 3037 3037 3037 3037 3037 3038 3038 3039 3039 3039 3039 3039 3039 3039 3039 3040 3041 3041 3042 3044 3045 3046 3047 3048 3049 3050 3051 3052 3053 3054 3055 3055 3056 3056 3056 3056 3056 3056 3056 3056 3057 3057 3057 3057 3058 3059 3059 3060 3060 3060 3060 3061 3061 3061 3061 3061 3061 3060
3048 3046 3045 3044 3043 3043 3042 3041 3040 3039 3039 3038 3036 3035 3034 3033 3032 3031 3031 3030 3030 3030 3030 3030 3030 3030 3030 3030 3030 3030 3030 3030 3031 3031 3032 3032 3032 3032 3032 3032 3032 3032 3033 3033 3034 3035 3036 3037 3038 3039 3040 3041 3042 3043 3044 3046 3047 3048 3048 3049 3049 3050 3050 3050 3050 3049 3049 3049 3050 3050 3050 3051 3051 3052 3052 3053 3053 3053 3053 3053 3053 3053 3053 3053 3053